Wolke Sonne

Wetter Ammerndorf

Gehe zu: Roßtal

Tageswerte vom Donnerstag, 24.03.2022

Optionen

Tag:
Erweitert:

Alle Werte vom Donnerstag, 24.03.2022

Einen Moment bitte, die Daten werden aufbereitet...

UhrzeitTemperaturBoden 10cmBoden 20cmFeuchteLuftdruckNiederschlagEvapotranspirationWindWindböenWindrichtungSolarstrahlungUV-IndexSonne?Uhrzeit
Diagramm IconDiagramm IconDiagramm IconDiagramm IconDiagramm IconDiagramm IconDiagramm IconDiagramm IconDiagramm IconDiagramm IconDiagramm IconDiagramm IconDiagramm Icon
00:00-0,2 °C 5,6 °C 5,6 °C 83 % 1031,2 hPa 0,0 mm - 0,0 km/h 0,0 km/h ONO 0,0 W/qm 0,0 nein 00:00
00:050,1 °C 5,6 °C 5,6 °C 84 % 1031,0 hPa 0,0 mm 0,0 mm 0,0 km/h 0,0 km/h ONO 0,0 W/qm 0,0 nein 00:05
00:100,2 °C 5,6 °C 5,6 °C 83 % 1031,0 hPa 0,0 mm 0,0 mm 0,0 km/h 0,0 km/h ONO 0,0 W/qm 0,0 nein 00:10
00:15-0,1 °C 5,6 °C 5,6 °C 82 % 1031,1 hPa 0,0 mm - 0,0 km/h 0,0 km/h ONO 0,0 W/qm 0,0 nein 00:15
00:20-0,2 °C 5,6 °C 5,6 °C 83 % 1031,1 hPa 0,0 mm - 0,0 km/h 0,0 km/h ONO 0,0 W/qm 0,0 nein 00:20
00:25-0,3 °C 5,0 °C 5,6 °C 83 % 1031,2 hPa 0,0 mm - 0,0 km/h 0,0 km/h ONO 0,0 W/qm 0,0 nein 00:25
00:30-0,3 °C 5,0 °C 5,6 °C 83 % 1031,2 hPa 0,0 mm - 0,0 km/h 0,0 km/h ONO 0,0 W/qm 0,0 nein 00:30
00:35-0,4 °C 5,0 °C 5,6 °C 84 % 1031,2 hPa 0,0 mm - 0,0 km/h 0,0 km/h ONO 0,0 W/qm 0,0 nein 00:35
00:40-0,6 °C 5,0 °C 5,6 °C 84 % 1031,2 hPa 0,0 mm - 0,0 km/h 0,0 km/h ONO 0,0 W/qm 0,0 nein 00:40
00:45-0,7 °C 5,0 °C 5,6 °C 84 % 1031,2 hPa 0,0 mm - 0,0 km/h 0,0 km/h ONO 0,0 W/qm 0,0 nein 00:45
00:50-0,6 °C 5,0 °C 5,6 °C 85 % 1031,2 hPa 0,0 mm - 0,0 km/h 0,0 km/h ONO 0,0 W/qm 0,0 nein 00:50
00:55-0,5 °C 5,0 °C 5,6 °C 85 % 1031,0 hPa 0,0 mm - 0,0 km/h 0,0 km/h ONO 0,0 W/qm 0,0 nein 00:55
01:00-0,6 °C 5,0 °C 5,6 °C 84 % 1031,0 hPa 0,0 mm - 0,0 km/h 0,0 km/h ONO 0,0 W/qm 0,0 nein 01:00
01:05-0,7 °C 5,0 °C 5,6 °C 84 % 1031,1 hPa 0,0 mm 0,0 mm 0,0 km/h 0,0 km/h ONO 0,0 W/qm 0,0 nein 01:05
01:10-0,7 °C 5,0 °C 5,6 °C 84 % 1031,2 hPa 0,0 mm 0,0 mm 0,0 km/h 0,0 km/h ONO 0,0 W/qm 0,0 nein 01:10
01:15-0,7 °C 5,0 °C 5,6 °C 84 % 1031,1 hPa 0,0 mm - 0,0 km/h 0,0 km/h ONO 0,0 W/qm 0,0 nein 01:15
01:20-0,8 °C 5,0 °C 5,6 °C 84 % 1031,1 hPa 0,0 mm - 0,0 km/h 0,0 km/h ONO 0,0 W/qm 0,0 nein 01:20
01:25-0,8 °C 5,0 °C 5,6 °C 85 % 1031,1 hPa 0,0 mm - 0,0 km/h 0,0 km/h ONO 0,0 W/qm 0,0 nein 01:25
01:30-0,9 °C 5,0 °C 5,6 °C 85 % 1031,1 hPa 0,0 mm - 0,0 km/h 0,0 km/h ONO 0,0 W/qm 0,0 nein 01:30
01:35-1,0 °C 5,0 °C 5,6 °C 85 % 1031,1 hPa 0,0 mm - 0,0 km/h 0,0 km/h ONO 0,0 W/qm 0,0 nein 01:35
01:40-1,1 °C 5,0 °C 5,6 °C 85 % 1031,1 hPa 0,0 mm - 0,0 km/h 0,0 km/h ONO 0,0 W/qm 0,0 nein 01:40
01:45-0,9 °C 5,0 °C 5,6 °C 85 % 1031,0 hPa 0,0 mm - 0,0 km/h 0,0 km/h ONO 0,0 W/qm 0,0 nein 01:45
01:50-0,9 °C 5,0 °C 5,6 °C 85 % 1031,0 hPa 0,0 mm - 0,0 km/h 0,0 km/h ONO 0,0 W/qm 0,0 nein 01:50
01:55-1,1 °C 5,0 °C 5,6 °C 85 % 1030,9 hPa 0,0 mm - 0,0 km/h 0,0 km/h ONO 0,0 W/qm 0,0 nein 01:55
UhrzeitTemperaturBoden 10cmBoden 20cmFeuchteLuftdruckNiederschlagEvapotranspirationWindWindböenWindrichtungSolarstrahlungUV-IndexSonne?Uhrzeit
02:00-1,1 °C 5,0 °C 5,6 °C 85 % 1030,9 hPa 0,0 mm - 0,0 km/h 0,0 km/h ONO 0,0 W/qm 0,0 nein 02:00
02:05-1,3 °C 5,0 °C 5,6 °C 85 % 1030,8 hPa 0,0 mm 0,0 mm 0,0 km/h 0,0 km/h ONO 0,0 W/qm 0,0 nein 02:05
02:10-1,3 °C 5,0 °C 5,6 °C 85 % 1030,8 hPa 0,0 mm 0,0 mm 0,0 km/h 0,0 km/h ONO 0,0 W/qm 0,0 nein 02:10
02:15-1,4 °C 5,0 °C 5,6 °C 85 % 1030,9 hPa 0,0 mm - 0,0 km/h 0,0 km/h ONO 0,0 W/qm 0,0 nein 02:15
02:20-1,3 °C 5,0 °C 5,6 °C 86 % 1030,8 hPa 0,0 mm - 0,0 km/h 0,0 km/h ONO 0,0 W/qm 0,0 nein 02:20
02:25-1,4 °C 5,0 °C 5,6 °C 86 % 1030,9 hPa 0,0 mm - 0,0 km/h 0,0 km/h ONO 0,0 W/qm 0,0 nein 02:25
02:30-1,4 °C 5,0 °C 5,6 °C 86 % 1031,0 hPa 0,0 mm - 0,0 km/h 0,0 km/h ONO 0,0 W/qm 0,0 nein 02:30
02:35-1,5 °C 5,0 °C 5,6 °C 86 % 1030,9 hPa 0,0 mm - 0,0 km/h 0,0 km/h ONO 0,0 W/qm 0,0 nein 02:35
02:40-1,6 °C 5,0 °C 5,6 °C 86 % 1030,9 hPa 0,0 mm - 0,0 km/h 0,0 km/h ONO 0,0 W/qm 0,0 nein 02:40
02:45-1,6 °C 5,0 °C 5,6 °C 86 % 1030,8 hPa 0,0 mm - 0,0 km/h 0,0 km/h ONO 0,0 W/qm 0,0 nein 02:45
02:50-1,7 °C 5,0 °C 5,6 °C 86 % 1030,8 hPa 0,0 mm - 0,0 km/h 0,0 km/h ONO 0,0 W/qm 0,0 nein 02:50
02:55-1,8 °C 5,0 °C 5,6 °C 85 % 1030,7 hPa 0,0 mm - 0,0 km/h 0,0 km/h ONO 0,0 W/qm 0,0 nein 02:55
03:00-1,9 °C 5,0 °C 5,6 °C 86 % 1030,7 hPa 0,0 mm - 0,0 km/h 0,0 km/h ONO 0,0 W/qm 0,0 nein 03:00
03:05-2,0 °C 5,0 °C 5,6 °C 86 % 1030,7 hPa 0,0 mm 0,0 mm 0,0 km/h 0,0 km/h ONO 0,0 W/qm 0,0 nein 03:05
03:10-1,9 °C 5,0 °C 5,6 °C 86 % 1030,7 hPa 0,0 mm 0,0 mm 0,0 km/h 0,0 km/h ONO 0,0 W/qm 0,0 nein 03:10
03:15-2,0 °C 4,4 °C 5,6 °C 86 % 1030,7 hPa 0,0 mm - 0,0 km/h 0,0 km/h ONO 0,0 W/qm 0,0 nein 03:15
03:20-2,0 °C 4,4 °C 5,6 °C 86 % 1030,7 hPa 0,0 mm - 0,0 km/h 0,0 km/h ONO 0,0 W/qm 0,0 nein 03:20
03:25-2,1 °C 4,4 °C 5,6 °C 86 % 1030,7 hPa 0,0 mm - 0,0 km/h 0,0 km/h ONO 0,0 W/qm 0,0 nein 03:25
03:30-2,1 °C 4,4 °C 5,6 °C 87 % 1030,7 hPa 0,0 mm - 0,0 km/h 0,0 km/h ONO 0,0 W/qm 0,0 nein 03:30
03:35-2,1 °C 4,4 °C 5,6 °C 87 % 1030,7 hPa 0,0 mm - 0,0 km/h 0,0 km/h ONO 0,0 W/qm 0,0 nein 03:35
03:40-2,2 °C 4,4 °C 5,6 °C 87 % 1030,7 hPa 0,0 mm - 0,0 km/h 0,0 km/h ONO 0,0 W/qm 0,0 nein 03:40
03:45-2,3 °C 4,4 °C 5,6 °C 87 % 1030,6 hPa 0,0 mm - 0,0 km/h 0,0 km/h ONO 0,0 W/qm 0,0 nein 03:45
03:50-2,3 °C 4,4 °C 5,6 °C 87 % 1030,6 hPa 0,0 mm - 0,0 km/h 0,0 km/h ONO 0,0 W/qm 0,0 nein 03:50
03:55-2,3 °C 4,4 °C 5,6 °C 87 % 1030,6 hPa 0,0 mm - 0,0 km/h 0,0 km/h ONO 0,0 W/qm 0,0 nein 03:55
UhrzeitTemperaturBoden 10cmBoden 20cmFeuchteLuftdruckNiederschlagEvapotranspirationWindWindböenWindrichtungSolarstrahlungUV-IndexSonne?Uhrzeit
04:00-2,4 °C 4,4 °C 5,6 °C 87 % 1030,6 hPa 0,0 mm - 0,0 km/h 0,0 km/h ONO 0,0 W/qm 0,0 nein 04:00
04:05-2,4 °C 4,4 °C 5,6 °C 87 % 1030,5 hPa 0,0 mm 0,0 mm 0,0 km/h 0,0 km/h ONO 0,0 W/qm 0,0 nein 04:05
04:10-2,3 °C 4,4 °C 5,6 °C 87 % 1030,6 hPa 0,0 mm 0,0 mm 0,0 km/h 0,0 km/h ONO 0,0 W/qm 0,0 nein 04:10
04:15-2,3 °C 4,4 °C 5,6 °C 87 % 1030,6 hPa 0,0 mm - 0,0 km/h 0,0 km/h ONO 0,0 W/qm 0,0 nein 04:15
04:20-2,4 °C 4,4 °C 5,6 °C 88 % 1030,6 hPa 0,0 mm - 0,0 km/h 0,0 km/h ONO 0,0 W/qm 0,0 nein 04:20
04:25-2,6 °C 4,4 °C 5,6 °C 87 % 1030,6 hPa 0,0 mm - 0,0 km/h 0,0 km/h ONO 0,0 W/qm 0,0 nein 04:25
04:30-2,4 °C 4,4 °C 5,6 °C 88 % 1030,6 hPa 0,0 mm - 0,0 km/h 0,0 km/h ONO 0,0 W/qm 0,0 nein 04:30
04:35-2,4 °C 4,4 °C 5,6 °C 88 % 1030,6 hPa 0,0 mm - 0,0 km/h 0,0 km/h ONO 0,0 W/qm 0,0 nein 04:35
04:40-2,4 °C 4,4 °C 5,6 °C 87 % 1030,6 hPa 0,0 mm - 0,0 km/h 0,0 km/h ONO 0,0 W/qm 0,0 nein 04:40
04:45-2,5 °C 4,4 °C 5,0 °C 87 % 1030,6 hPa 0,0 mm - 0,0 km/h 0,0 km/h ONO 0,0 W/qm 0,0 nein 04:45
04:50-2,6 °C 4,4 °C 5,0 °C 87 % 1030,8 hPa 0,0 mm - 0,0 km/h 0,0 km/h ONO 0,0 W/qm 0,0 nein 04:50
04:55-2,7 °C 4,4 °C 5,0 °C 87 % 1030,9 hPa 0,0 mm - 0,0 km/h 0,0 km/h ONO 0,0 W/qm 0,0 nein 04:55
05:00-2,8 °C 4,4 °C 5,0 °C 87 % 1030,9 hPa 0,0 mm - 0,0 km/h 0,0 km/h ONO 0,0 W/qm 0,0 nein 05:00
05:05-2,9 °C 4,4 °C 5,0 °C 87 % 1030,8 hPa 0,0 mm 0,0 mm 0,0 km/h 0,0 km/h ONO 0,0 W/qm 0,0 nein 05:05
05:10-2,9 °C 4,4 °C 5,0 °C 88 % 1030,8 hPa 0,0 mm 0,0 mm 0,0 km/h 0,0 km/h ONO 0,0 W/qm 0,0 nein 05:10
05:15-3,0 °C 4,4 °C 5,0 °C 88 % 1030,8 hPa 0,0 mm - 0,0 km/h 0,0 km/h ONO 0,0 W/qm 0,0 nein 05:15
05:20-3,1 °C 4,4 °C 5,0 °C 88 % 1030,8 hPa 0,0 mm - 0,0 km/h 0,0 km/h ONO 0,0 W/qm 0,0 nein 05:20
05:25-3,1 °C 4,4 °C 5,0 °C 88 % 1030,8 hPa 0,0 mm - 0,0 km/h 0,0 km/h ONO 0,0 W/qm 0,0 nein 05:25
05:30-3,0 °C 4,4 °C 5,0 °C 88 % 1030,8 hPa 0,0 mm - 0,0 km/h 0,0 km/h ONO 0,0 W/qm 0,0 nein 05:30
05:35-3,1 °C 4,4 °C 5,0 °C 88 % 1030,8 hPa 0,0 mm - 0,0 km/h 0,0 km/h ONO 0,0 W/qm 0,0 nein 05:35
05:40-3,1 °C 4,4 °C 5,0 °C 88 % 1030,9 hPa 0,0 mm - 0,0 km/h 0,0 km/h ONO 0,0 W/qm 0,0 nein 05:40
05:45-3,1 °C 4,4 °C 5,0 °C 88 % 1031,0 hPa 0,0 mm - 0,0 km/h 0,0 km/h ONO 0,0 W/qm 0,0 nein 05:45
05:50-3,1 °C 4,4 °C 5,0 °C 88 % 1031,0 hPa 0,0 mm - 0,0 km/h 0,0 km/h ONO 0,0 W/qm 0,0 nein 05:50
05:55-3,2 °C 4,4 °C 5,0 °C 88 % 1031,0 hPa 0,0 mm - 0,0 km/h 0,0 km/h ONO 0,0 W/qm 0,0 nein 05:55
UhrzeitTemperaturBoden 10cmBoden 20cmFeuchteLuftdruckNiederschlagEvapotranspirationWindWindböenWindrichtungSolarstrahlungUV-IndexSonne?Uhrzeit
06:00-3,1 °C 4,4 °C 5,0 °C 89 % 1031,1 hPa 0,0 mm - 0,0 km/h 0,0 km/h ONO 0,0 W/qm 0,0 nein 06:00
06:05-3,1 °C 4,4 °C 5,0 °C 89 % 1031,1 hPa 0,0 mm 0,0 mm 0,0 km/h 0,0 km/h ONO 0,0 W/qm 0,0 nein 06:05
06:10-3,2 °C 4,4 °C 5,0 °C 88 % 1031,1 hPa 0,0 mm 0,0 mm 0,0 km/h 0,0 km/h ONO 5,0 W/qm 0,0 nein 06:10
06:15-3,3 °C 4,4 °C 5,0 °C 88 % 1031,2 hPa 0,0 mm - 0,0 km/h 0,0 km/h ONO 7,0 W/qm 0,0 nein 06:15
06:20-3,4 °C 4,4 °C 5,0 °C 88 % 1031,3 hPa 0,0 mm - 0,0 km/h 0,0 km/h ONO 11,0 W/qm 0,0 nein 06:20
06:25-3,3 °C 4,4 °C 5,0 °C 89 % 1031,3 hPa 0,0 mm - 0,0 km/h 0,0 km/h ONO 12,0 W/qm 0,0 nein 06:25
06:30-3,3 °C 3,9 °C 5,0 °C 89 % 1031,3 hPa 0,0 mm - 0,0 km/h 0,0 km/h ONO 14,0 W/qm 0,0 nein 06:30
06:35-3,2 °C 3,9 °C 5,0 °C 89 % 1031,2 hPa 0,0 mm - 0,0 km/h 0,0 km/h ONO 18,0 W/qm 0,0 nein 06:35
06:40-3,3 °C 3,9 °C 5,0 °C 89 % 1031,4 hPa 0,0 mm - 0,0 km/h 0,0 km/h ONO 19,0 W/qm 0,0 nein 06:40
06:45-3,2 °C 3,9 °C 5,0 °C 89 % 1031,4 hPa 0,0 mm - 0,0 km/h 0,0 km/h ONO 23,0 W/qm 0,0 nein 06:45
06:50-3,2 °C 3,9 °C 5,0 °C 89 % 1031,5 hPa 0,0 mm - 0,0 km/h 0,0 km/h ONO 25,0 W/qm 0,0 nein 06:50
06:55-3,1 °C 3,9 °C 5,0 °C 89 % 1031,3 hPa 0,0 mm - 0,0 km/h 0,0 km/h ONO 28,0 W/qm 0,0 nein 06:55
07:00-3,1 °C 3,9 °C 5,0 °C 89 % 1031,3 hPa 0,0 mm - 0,0 km/h 0,0 km/h ONO 30,0 W/qm 0,0 nein 07:00
07:05-2,9 °C 3,9 °C 5,0 °C 89 % 1031,4 hPa 0,0 mm 0,0 mm 0,0 km/h 0,0 km/h ONO 33,0 W/qm 0,0 nein 07:05
07:10-2,8 °C 3,9 °C 5,0 °C 88 % 1031,4 hPa 0,0 mm 0,0 mm 0,0 km/h 0,0 km/h ONO 35,0 W/qm 0,0 nein 07:10
07:15-2,9 °C 3,9 °C 5,0 °C 88 % 1031,4 hPa 0,0 mm - 0,0 km/h 0,0 km/h ONO 37,0 W/qm 0,0 nein 07:15
07:20-2,8 °C 3,9 °C 5,0 °C 89 % 1031,5 hPa 0,0 mm - 0,0 km/h 0,0 km/h ONO 44,0 W/qm 0,0 nein 07:20
07:25-2,7 °C 3,9 °C 5,0 °C 89 % 1031,5 hPa 0,0 mm - 0,0 km/h 0,0 km/h ONO 49,0 W/qm 0,0 nein 07:25
07:30-2,6 °C 3,9 °C 5,0 °C 89 % 1031,4 hPa 0,0 mm - 0,0 km/h 0,0 km/h ONO 51,0 W/qm 0,0 nein 07:30
07:35-2,3 °C 3,9 °C 5,0 °C 89 % 1031,3 hPa 0,0 mm - 0,0 km/h 0,0 km/h ONO 54,0 W/qm 0,0 nein 07:35
07:40-2,1 °C 3,9 °C 5,0 °C 88 % 1031,3 hPa 0,0 mm - 0,0 km/h 0,0 km/h ONO 56,0 W/qm 0,0 nein 07:40
07:45-1,8 °C 3,9 °C 5,0 °C 88 % 1031,2 hPa 0,0 mm - 0,0 km/h 0,0 km/h ONO 58,0 W/qm 0,0 nein 07:45
07:50-1,5 °C 3,9 °C 5,0 °C 88 % 1031,2 hPa 0,0 mm - 0,0 km/h 0,0 km/h ONO 60,0 W/qm 0,0 nein 07:50
07:55-1,2 °C 3,9 °C 5,0 °C 88 % 1031,1 hPa 0,0 mm - 0,0 km/h 0,0 km/h ONO 62,0 W/qm 0,0 nein 07:55
UhrzeitTemperaturBoden 10cmBoden 20cmFeuchteLuftdruckNiederschlagEvapotranspirationWindWindböenWindrichtungSolarstrahlungUV-IndexSonne?Uhrzeit
08:00-0,9 °C 3,9 °C 5,0 °C 88 % 1031,2 hPa 0,0 mm - 0,0 km/h 0,0 km/h ONO 63,0 W/qm 0,0 nein 08:00
08:05-0,6 °C 3,9 °C 5,0 °C 87 % 1031,0 hPa 0,0 mm 0,0 mm 0,0 km/h 0,0 km/h ONO 65,0 W/qm 0,0 nein 08:05
08:10-0,3 °C 3,9 °C 5,0 °C 87 % 1031,0 hPa 0,0 mm 0,0 mm 0,0 km/h 0,0 km/h ONO 192,0 W/qm 0,0 nein 08:10
08:150,2 °C 3,9 °C 5,0 °C 87 % 1030,9 hPa 0,0 mm - 0,0 km/h 0,0 km/h ONO 272,0 W/qm 0,5 ja 08:15
08:200,9 °C 3,9 °C 5,0 °C 85 % 1030,9 hPa 0,0 mm - 0,0 km/h 0,0 km/h SO 283,0 W/qm 0,5 ja 08:20
08:251,3 °C 3,9 °C 5,0 °C 84 % 1030,9 hPa 0,0 mm - 0,0 km/h 1,4 km/h SO 301,0 W/qm 0,5 ja 08:25
08:301,8 °C 3,9 °C 5,0 °C 84 % 1030,8 hPa 0,0 mm - 0,0 km/h 1,4 km/h SO 322,0 W/qm 0,6 ja 08:30
08:352,3 °C 3,9 °C 5,0 °C 82 % 1030,7 hPa 0,0 mm - 0,0 km/h 1,4 km/h SO 338,0 W/qm 0,6 ja 08:35
08:402,7 °C 3,9 °C 5,0 °C 80 % 1030,6 hPa 0,0 mm - 0,0 km/h 1,4 km/h SO 348,0 W/qm 0,7 ja 08:40
08:453,3 °C 3,9 °C 5,0 °C 77 % 1030,6 hPa 0,0 mm - 0,0 km/h 1,4 km/h SO 362,0 W/qm 0,7 ja 08:45
08:503,6 °C 3,9 °C 5,0 °C 77 % 1030,5 hPa 0,0 mm - 0,0 km/h 3,2 km/h SO 374,0 W/qm 0,8 ja 08:50
08:554,0 °C 3,9 °C 5,0 °C 75 % 1030,4 hPa 0,0 mm - 0,0 km/h 3,2 km/h SO 388,0 W/qm 0,8 ja 08:55
09:004,3 °C 3,9 °C 5,0 °C 75 % 1030,3 hPa 0,0 mm - 0,0 km/h 3,2 km/h SO 401,0 W/qm 0,9 ja 09:00
09:054,9 °C 3,9 °C 5,0 °C 73 % 1030,3 hPa 0,0 mm 0,1 mm 0,0 km/h 3,2 km/h SO 415,0 W/qm 0,9 ja 09:05
09:105,6 °C 3,9 °C 5,0 °C 70 % 1030,1 hPa 0,0 mm 0,1 mm 0,0 km/h 3,2 km/h SO 427,0 W/qm 1,0 ja 09:10
09:156,1 °C 3,9 °C 5,0 °C 68 % 1030,0 hPa 0,0 mm - 0,0 km/h 3,2 km/h SO 441,0 W/qm 1,0 ja 09:15
09:206,6 °C 3,9 °C 5,0 °C 66 % 1030,0 hPa 0,0 mm - 0,0 km/h 1,4 km/h SSO 455,0 W/qm 1,1 ja 09:20
09:257,1 °C 3,9 °C 5,0 °C 65 % 1029,9 hPa 0,0 mm - 1,4 km/h 4,7 km/h S 464,0 W/qm 1,1 ja 09:25
09:307,7 °C 3,9 °C 5,0 °C 64 % 1029,8 hPa 0,0 mm - 1,4 km/h 4,7 km/h S 476,0 W/qm 1,2 ja 09:30
09:357,8 °C 3,9 °C 5,0 °C 62 % 1029,8 hPa 0,0 mm - 1,4 km/h 6,5 km/h S 487,0 W/qm 1,2 ja 09:35
09:408,0 °C 3,9 °C 5,0 °C 62 % 1029,8 hPa 0,0 mm - 1,4 km/h 6,5 km/h S 499,0 W/qm 1,3 ja 09:40
09:458,5 °C 3,9 °C 5,0 °C 60 % 1029,8 hPa 0,0 mm - 0,0 km/h 6,5 km/h S 510,0 W/qm 1,4 ja 09:45
09:508,8 °C 3,9 °C 5,0 °C 59 % 1029,6 hPa 0,0 mm - 0,0 km/h 4,7 km/h SSO 520,0 W/qm 1,4 ja 09:50
09:559,3 °C 3,9 °C 5,0 °C 58 % 1029,6 hPa 0,0 mm - 0,0 km/h 4,7 km/h SSO 531,0 W/qm 1,5 ja 09:55
UhrzeitTemperaturBoden 10cmBoden 20cmFeuchteLuftdruckNiederschlagEvapotranspirationWindWindböenWindrichtungSolarstrahlungUV-IndexSonne?Uhrzeit
10:009,7 °C 3,9 °C 5,0 °C 57 % 1029,4 hPa 0,0 mm - 0,0 km/h 4,7 km/h SSO 538,0 W/qm 1,5 ja 10:00
10:059,9 °C 3,9 °C 5,0 °C 56 % 1029,4 hPa 0,0 mm 0,3 mm 0,0 km/h 3,2 km/h S 550,0 W/qm 1,6 ja 10:05
10:1010,1 °C 3,9 °C 5,0 °C 56 % 1029,4 hPa 0,0 mm 0,3 mm 0,0 km/h 3,2 km/h S 557,0 W/qm 1,6 ja 10:10
10:1510,6 °C 3,9 °C 5,0 °C 57 % 1029,4 hPa 0,0 mm - 0,0 km/h 3,2 km/h S 570,0 W/qm 1,7 ja 10:15
10:2011,1 °C 3,9 °C 5,0 °C 54 % 1029,3 hPa 0,0 mm - 0,0 km/h 3,2 km/h WNW 575,0 W/qm 1,7 ja 10:20
10:2511,5 °C 3,9 °C 5,0 °C 53 % 1029,3 hPa 0,0 mm - 0,0 km/h 3,2 km/h SW 585,0 W/qm 1,8 ja 10:25
10:3011,3 °C 3,9 °C 5,0 °C 52 % 1029,2 hPa 0,0 mm - 0,0 km/h 3,2 km/h SW 594,0 W/qm 1,8 ja 10:30
10:3511,7 °C 3,9 °C 5,0 °C 53 % 1029,1 hPa 0,0 mm - 0,0 km/h 4,7 km/h SSW 601,0 W/qm 1,9 ja 10:35
10:4012,1 °C 3,9 °C 5,0 °C 51 % 1029,1 hPa 0,0 mm - 0,0 km/h 4,7 km/h SSW 610,0 W/qm 1,9 ja 10:40
10:4512,2 °C 4,4 °C 5,0 °C 52 % 1029,1 hPa 0,0 mm - 0,0 km/h 4,7 km/h ONO 615,0 W/qm 2,0 ja 10:45
10:5012,4 °C 4,4 °C 5,0 °C 50 % 1028,9 hPa 0,0 mm - 1,4 km/h 4,7 km/h SSO 624,0 W/qm 2,0 ja 10:50
10:5512,8 °C 4,4 °C 5,0 °C 50 % 1028,9 hPa 0,0 mm - 1,4 km/h 4,7 km/h S 631,0 W/qm 2,0 ja 10:55
11:0013,2 °C 4,4 °C 5,0 °C 49 % 1028,8 hPa 0,0 mm - 0,0 km/h 4,7 km/h SO 636,0 W/qm 2,1 ja 11:00
11:0513,6 °C 4,4 °C 5,0 °C 48 % 1028,7 hPa 0,0 mm 0,6 mm 0,0 km/h 4,7 km/h SSW 642,0 W/qm 2,1 ja 11:05
11:1013,3 °C 4,4 °C 5,0 °C 48 % 1028,8 hPa 0,0 mm 0,6 mm 0,0 km/h 4,7 km/h S 649,0 W/qm 2,2 ja 11:10
11:1513,8 °C 4,4 °C 5,0 °C 46 % 1028,6 hPa 0,0 mm - 0,0 km/h 3,2 km/h ONO 656,0 W/qm 2,2 ja 11:15
11:2013,8 °C 4,4 °C 5,0 °C 48 % 1028,6 hPa 0,0 mm - 3,2 km/h 3,2 km/h NO 659,0 W/qm 2,2 ja 11:20
11:2513,9 °C 4,4 °C 5,0 °C 45 % 1028,6 hPa 0,0 mm - 4,7 km/h 9,7 km/h NO 666,0 W/qm 2,2 ja 11:25
11:3014,1 °C 4,4 °C 5,0 °C 42 % 1028,5 hPa 0,0 mm - 4,7 km/h 9,7 km/h ONO 668,0 W/qm 2,2 ja 11:30
11:3514,6 °C 4,4 °C 5,0 °C 41 % 1028,4 hPa 0,0 mm - 3,2 km/h 9,7 km/h NO 671,0 W/qm 2,2 ja 11:35
11:4014,8 °C 4,4 °C 5,0 °C 44 % 1028,3 hPa 0,0 mm - 3,2 km/h 9,7 km/h NNW 675,0 W/qm 2,3 ja 11:40
11:4514,8 °C 4,4 °C 5,0 °C 40 % 1028,3 hPa 0,0 mm - 3,2 km/h 9,7 km/h ONO 680,0 W/qm 2,3 ja 11:45
11:5014,6 °C 4,4 °C 5,0 °C 41 % 1028,3 hPa 0,0 mm - 4,7 km/h 9,7 km/h NO 682,0 W/qm 2,3 ja 11:50
11:5514,6 °C 5,0 °C 5,0 °C 39 % 1028,3 hPa 0,0 mm - 6,5 km/h 13,0 km/h N 684,0 W/qm 2,3 ja 11:55
UhrzeitTemperaturBoden 10cmBoden 20cmFeuchteLuftdruckNiederschlagEvapotranspirationWindWindböenWindrichtungSolarstrahlungUV-IndexSonne?Uhrzeit
12:0014,6 °C 5,0 °C 5,0 °C 40 % 1028,2 hPa 0,0 mm - 4,7 km/h 13,0 km/h NO 686,0 W/qm 2,3 ja 12:00
12:0515,0 °C 5,0 °C 5,0 °C 41 % 1028,3 hPa 0,0 mm 1,0 mm 6,5 km/h 13,0 km/h NO 687,0 W/qm 2,3 ja 12:05
12:1015,1 °C 5,0 °C 5,0 °C 39 % 1028,2 hPa 0,0 mm 1,0 mm 7,9 km/h 11,2 km/h NNO 693,0 W/qm 2,3 ja 12:10
12:1515,1 °C 5,0 °C 5,0 °C 39 % 1028,2 hPa 0,0 mm - 6,5 km/h 11,2 km/h NO 693,0 W/qm 2,3 ja 12:15
12:2015,2 °C 5,0 °C 5,0 °C 41 % 1028,0 hPa 0,0 mm - 6,5 km/h 11,2 km/h ONO 693,0 W/qm 2,3 ja 12:20
12:2515,5 °C 5,0 °C 5,0 °C 43 % 1028,0 hPa 0,0 mm - 6,5 km/h 11,2 km/h N 694,0 W/qm 2,3 ja 12:25
12:3015,9 °C 5,0 °C 5,0 °C 39 % 1027,9 hPa 0,0 mm - 4,7 km/h 11,2 km/h WNW 691,0 W/qm 2,3 ja 12:30
12:3515,8 °C 5,0 °C 5,0 °C 39 % 1028,0 hPa 0,0 mm - 6,5 km/h 11,2 km/h ONO 693,0 W/qm 2,3 ja 12:35
12:4015,8 °C 5,0 °C 5,0 °C 38 % 1027,9 hPa 0,0 mm - 4,7 km/h 13,0 km/h NO 694,0 W/qm 2,3 ja 12:40
12:4516,0 °C 5,0 °C 5,0 °C 37 % 1027,7 hPa 0,0 mm - 6,5 km/h 13,0 km/h NO 687,0 W/qm 2,3 ja 12:45
12:5016,1 °C 5,0 °C 5,0 °C 34 % 1027,6 hPa 0,0 mm - 7,9 km/h 19,4 km/h NO 691,0 W/qm 2,3 ja 12:50
12:5516,2 °C 5,0 °C 5,0 °C 34 % 1027,6 hPa 0,0 mm - 6,5 km/h 19,4 km/h NO 687,0 W/qm 2,3 ja 12:55
13:0016,4 °C 5,6 °C 5,0 °C 37 % 1027,5 hPa 0,0 mm - 6,5 km/h 19,4 km/h NO 689,0 W/qm 2,3 ja 13:00
13:0516,3 °C 5,6 °C 5,0 °C 36 % 1027,5 hPa 0,0 mm 1,4 mm 4,7 km/h 13,0 km/h NO 689,0 W/qm 2,3 ja 13:05
13:1016,3 °C 5,6 °C 5,0 °C 38 % 1027,4 hPa 0,0 mm 1,4 mm 4,7 km/h 16,2 km/h ONO 682,0 W/qm 2,2 ja 13:10
13:1516,5 °C 5,6 °C 5,0 °C 35 % 1027,3 hPa 0,0 mm - 3,2 km/h 16,2 km/h N 682,0 W/qm 2,2 ja 13:15
13:2016,6 °C 5,6 °C 5,0 °C 34 % 1027,2 hPa 0,0 mm - 3,2 km/h 13,0 km/h NO 671,0 W/qm 2,2 ja 13:20
13:2516,7 °C 5,6 °C 5,0 °C 37 % 1027,2 hPa 0,0 mm - 3,2 km/h 11,2 km/h ONO 663,0 W/qm 2,2 ja 13:25
13:3016,8 °C 5,6 °C 5,0 °C 34 % 1027,2 hPa 0,0 mm - 3,2 km/h 11,2 km/h NNO 675,0 W/qm 2,2 ja 13:30
13:3516,9 °C 5,6 °C 5,0 °C 33 % 1027,1 hPa 0,0 mm - 4,7 km/h 9,7 km/h NO 668,0 W/qm 2,1 ja 13:35
13:4016,9 °C 5,6 °C 5,0 °C 34 % 1027,0 hPa 0,0 mm - 3,2 km/h 11,2 km/h ONO 656,0 W/qm 2,1 ja 13:40
13:4516,8 °C 5,6 °C 5,0 °C 31 % 1027,0 hPa 0,0 mm - 3,2 km/h 11,2 km/h NO 650,0 W/qm 2,1 ja 13:45
13:5016,8 °C 5,6 °C 5,0 °C 32 % 1026,9 hPa 0,0 mm - 4,7 km/h 11,2 km/h NO 636,0 W/qm 2,0 ja 13:50
13:5517,1 °C 6,1 °C 5,0 °C 34 % 1026,9 hPa 0,0 mm - 3,2 km/h 9,7 km/h NW 628,0 W/qm 2,0 ja 13:55
UhrzeitTemperaturBoden 10cmBoden 20cmFeuchteLuftdruckNiederschlagEvapotranspirationWindWindböenWindrichtungSolarstrahlungUV-IndexSonne?Uhrzeit
14:0017,3 °C 6,1 °C 5,0 °C 32 % 1026,7 hPa 0,0 mm - 3,2 km/h 9,7 km/h ONO 629,0 W/qm 2,0 ja 14:00
14:0516,9 °C 6,1 °C 5,0 °C 30 % 1026,8 hPa 0,0 mm 1,8 mm 3,2 km/h 7,9 km/h NO 624,0 W/qm 1,9 ja 14:05
14:1017,1 °C 6,1 °C 5,0 °C 32 % 1026,8 hPa 0,0 mm 1,8 mm 4,7 km/h 11,2 km/h NO 619,0 W/qm 1,9 ja 14:10
14:1516,9 °C 6,1 °C 5,0 °C 31 % 1026,7 hPa 0,0 mm - 4,7 km/h 11,2 km/h NO 617,0 W/qm 1,8 ja 14:15
14:2017,1 °C 6,1 °C 5,0 °C 28 % 1026,7 hPa 0,0 mm - 4,7 km/h 11,2 km/h SW 605,0 W/qm 1,8 ja 14:20
14:2517,3 °C 6,1 °C 5,0 °C 30 % 1026,6 hPa 0,0 mm - 1,4 km/h 9,7 km/h ONO 606,0 W/qm 1,8 ja 14:25
14:3017,5 °C 6,1 °C 5,6 °C 34 % 1026,5 hPa 0,0 mm - 1,4 km/h 9,7 km/h NO 594,0 W/qm 1,7 ja 14:30
14:3517,6 °C 6,1 °C 5,6 °C 31 % 1026,4 hPa 0,0 mm - 3,2 km/h 9,7 km/h NO 580,0 W/qm 1,7 ja 14:35
14:4017,2 °C 6,1 °C 5,6 °C 30 % 1026,4 hPa 0,0 mm - 6,5 km/h 7,9 km/h NO 564,0 W/qm 1,6 ja 14:40
14:4517,2 °C 6,1 °C 5,6 °C 31 % 1026,4 hPa 0,0 mm - 6,5 km/h 13,0 km/h ONO 555,0 W/qm 1,5 ja 14:45
14:5017,2 °C 6,7 °C 5,6 °C 32 % 1026,4 hPa 0,0 mm - 4,7 km/h 13,0 km/h N 548,0 W/qm 1,5 ja 14:50
14:5517,6 °C 6,7 °C 5,6 °C 30 % 1026,3 hPa 0,0 mm - 3,2 km/h 13,0 km/h NO 540,0 W/qm 1,5 ja 14:55
15:0017,3 °C 6,7 °C 5,6 °C 28 % 1026,3 hPa 0,0 mm - 4,7 km/h 11,2 km/h NO 527,0 W/qm 1,4 ja 15:00
15:0517,2 °C 6,7 °C 5,6 °C 30 % 1026,3 hPa 0,0 mm 2,1 mm 6,5 km/h 11,2 km/h O 515,0 W/qm 1,3 ja 15:05
15:1017,0 °C 6,7 °C 5,6 °C 31 % 1026,3 hPa 0,0 mm 2,1 mm 6,5 km/h 11,2 km/h NO 504,0 W/qm 1,3 ja 15:10
15:1517,0 °C 6,7 °C 5,6 °C 32 % 1026,3 hPa 0,0 mm - 6,5 km/h 11,2 km/h O 492,0 W/qm 1,2 ja 15:15
15:2016,9 °C 6,7 °C 5,6 °C 29 % 1026,3 hPa 0,0 mm - 4,7 km/h 11,2 km/h NO 483,0 W/qm 1,2 ja 15:20
15:2517,0 °C 6,7 °C 5,6 °C 30 % 1026,3 hPa 0,0 mm - 1,4 km/h 11,2 km/h ONO 469,0 W/qm 1,2 ja 15:25
15:3016,9 °C 6,7 °C 5,6 °C 28 % 1026,1 hPa 0,0 mm - 3,2 km/h 11,2 km/h ONO 452,0 W/qm 1,1 ja 15:30
15:3517,0 °C 6,7 °C 5,6 °C 31 % 1025,9 hPa 0,0 mm - 4,7 km/h 7,9 km/h NO 441,0 W/qm 1,1 ja 15:35
15:4016,8 °C 6,7 °C 5,6 °C 30 % 1026,0 hPa 0,0 mm - 4,7 km/h 13,0 km/h NO 431,0 W/qm 1,0 ja 15:40
15:4516,7 °C 6,7 °C 5,6 °C 29 % 1026,0 hPa 0,0 mm - 4,7 km/h 13,0 km/h ONO 420,0 W/qm 1,0 ja 15:45
15:5016,8 °C 6,7 °C 5,6 °C 31 % 1025,9 hPa 0,0 mm - 4,7 km/h 13,0 km/h NO 410,0 W/qm 0,9 ja 15:50
15:5516,7 °C 6,7 °C 5,6 °C 29 % 1025,8 hPa 0,0 mm - 4,7 km/h 11,2 km/h NO 399,0 W/qm 0,9 ja 15:55
UhrzeitTemperaturBoden 10cmBoden 20cmFeuchteLuftdruckNiederschlagEvapotranspirationWindWindböenWindrichtungSolarstrahlungUV-IndexSonne?Uhrzeit
16:0016,9 °C 6,7 °C 5,6 °C 28 % 1025,8 hPa 0,0 mm - 3,2 km/h 13,0 km/h NNO 388,0 W/qm 0,8 ja 16:00
16:0517,2 °C 6,7 °C 5,6 °C 28 % 1025,7 hPa 0,0 mm 2,4 mm 1,4 km/h 13,0 km/h SW 376,0 W/qm 0,8 ja 16:05
16:1017,3 °C 6,7 °C 5,6 °C 28 % 1025,6 hPa 0,0 mm 2,4 mm 3,2 km/h 7,9 km/h SSW 364,0 W/qm 0,8 ja 16:10
16:1517,1 °C 6,7 °C 5,6 °C 28 % 1025,6 hPa 0,0 mm - 1,4 km/h 9,7 km/h NO 353,0 W/qm 0,7 ja 16:15
16:2016,8 °C 6,7 °C 5,6 °C 31 % 1025,7 hPa 0,0 mm - 1,4 km/h 9,7 km/h NO 338,0 W/qm 0,7 ja 16:20
16:2516,4 °C 6,7 °C 5,6 °C 29 % 1025,6 hPa 0,0 mm - 1,4 km/h 9,7 km/h NO 322,0 W/qm 0,6 ja 16:25
16:3016,5 °C 6,7 °C 5,6 °C 32 % 1025,6 hPa 0,0 mm - 1,4 km/h 6,5 km/h NO 304,0 W/qm 0,6 ja 16:30
16:3516,3 °C 6,7 °C 5,6 °C 33 % 1025,6 hPa 0,0 mm - 1,4 km/h 6,5 km/h ONO 292,0 W/qm 0,5 ja 16:35
16:4016,3 °C 6,7 °C 5,6 °C 33 % 1025,6 hPa 0,0 mm - 4,7 km/h 6,5 km/h NO 272,0 W/qm 0,5 ja 16:40
16:4516,1 °C 6,7 °C 5,6 °C 32 % 1025,6 hPa 0,0 mm - 4,7 km/h 7,9 km/h ONO 257,0 W/qm 0,5 nein 16:45
16:5016,0 °C 6,7 °C 5,6 °C 31 % 1025,7 hPa 0,0 mm - 3,2 km/h 7,9 km/h ONO 241,0 W/qm 0,0 nein 16:50
16:5515,7 °C 6,7 °C 5,6 °C 35 % 1025,7 hPa 0,0 mm - 1,4 km/h 7,9 km/h ONO 225,0 W/qm 0,0 nein 16:55
17:0015,6 °C 6,7 °C 5,6 °C 37 % 1025,7 hPa 0,0 mm - 1,4 km/h 7,9 km/h ONO 204,0 W/qm 0,0 nein 17:00
17:0515,8 °C 6,7 °C 5,6 °C 32 % 1025,7 hPa 0,0 mm 2,6 mm 0,0 km/h 7,9 km/h OSO 186,0 W/qm 0,0 nein 17:05
17:1015,2 °C 6,7 °C 5,6 °C 38 % 1025,8 hPa 0,0 mm 2,6 mm 0,0 km/h 4,7 km/h O 171,0 W/qm 0,0 nein 17:10
17:1515,3 °C 6,7 °C 5,6 °C 32 % 1025,9 hPa 0,0 mm - 0,0 km/h 4,7 km/h O 151,0 W/qm 0,0 nein 17:15
17:2015,5 °C 6,7 °C 5,6 °C 33 % 1025,8 hPa 0,0 mm - 0,0 km/h 3,2 km/h O 125,0 W/qm 0,0 nein 17:20
17:2515,4 °C 6,7 °C 6,1 °C 33 % 1025,8 hPa 0,0 mm - 0,0 km/h 3,2 km/h O 123,0 W/qm 0,0 nein 17:25
17:3015,1 °C 6,7 °C 6,1 °C 32 % 1025,9 hPa 0,0 mm - 0,0 km/h 0,0 km/h O 86,0 W/qm 0,0 nein 17:30
17:3514,7 °C 6,7 °C 6,1 °C 35 % 1025,8 hPa 0,0 mm - 0,0 km/h 0,0 km/h ONO 58,0 W/qm 0,0 nein 17:35
17:4014,6 °C 6,7 °C 6,1 °C 34 % 1025,9 hPa 0,0 mm - 0,0 km/h 3,2 km/h ONO 56,0 W/qm 0,0 nein 17:40
17:4514,1 °C 6,7 °C 6,1 °C 35 % 1025,9 hPa 0,0 mm - 0,0 km/h 3,2 km/h ONO 40,0 W/qm 0,0 nein 17:45
17:5013,3 °C 6,7 °C 6,1 °C 43 % 1026,0 hPa 0,0 mm - 0,0 km/h 3,2 km/h ONO 35,0 W/qm 0,0 nein 17:50
17:5512,5 °C 6,7 °C 6,1 °C 41 % 1026,1 hPa 0,0 mm - 0,0 km/h 0,0 km/h ONO 32,0 W/qm 0,0 nein 17:55
UhrzeitTemperaturBoden 10cmBoden 20cmFeuchteLuftdruckNiederschlagEvapotranspirationWindWindböenWindrichtungSolarstrahlungUV-IndexSonne?Uhrzeit
18:0012,3 °C 6,7 °C 6,1 °C 46 % 1026,2 hPa 0,0 mm - 0,0 km/h 4,7 km/h ONO 28,0 W/qm 0,0 nein 18:00
18:0512,0 °C 6,7 °C 6,1 °C 47 % 1026,2 hPa 0,0 mm 2,6 mm 0,0 km/h 4,7 km/h ONO 25,0 W/qm 0,0 nein 18:05
18:1011,8 °C 6,7 °C 6,1 °C 45 % 1026,2 hPa 0,0 mm 2,6 mm 0,0 km/h 4,7 km/h ONO 21,0 W/qm 0,0 nein 18:10
18:1511,3 °C 6,7 °C 6,1 °C 47 % 1026,3 hPa 0,0 mm - 0,0 km/h 0,0 km/h ONO 18,0 W/qm 0,0 nein 18:15
18:2010,9 °C 6,7 °C 6,1 °C 51 % 1026,3 hPa 0,0 mm - 0,0 km/h 0,0 km/h ONO 14,0 W/qm 0,0 nein 18:20
18:2510,4 °C 6,7 °C 6,1 °C 54 % 1026,5 hPa 0,0 mm - 0,0 km/h 0,0 km/h ONO 11,0 W/qm 0,0 nein 18:25
18:3010,1 °C 6,7 °C 6,1 °C 56 % 1026,6 hPa 0,0 mm - 0,0 km/h 0,0 km/h ONO 9,0 W/qm 0,0 nein 18:30
18:359,7 °C 6,7 °C 6,1 °C 55 % 1026,6 hPa 0,0 mm - 0,0 km/h 0,0 km/h ONO 5,0 W/qm 0,0 nein 18:35
18:409,4 °C 6,7 °C 6,1 °C 56 % 1026,8 hPa 0,0 mm - 0,0 km/h 0,0 km/h ONO 5,0 W/qm 0,0 nein 18:40
18:459,2 °C 6,7 °C 6,1 °C 57 % 1026,8 hPa 0,0 mm - 0,0 km/h 0,0 km/h ONO 0,0 W/qm 0,0 nein 18:45
18:509,1 °C 6,7 °C 6,1 °C 57 % 1026,8 hPa 0,0 mm - 0,0 km/h 0,0 km/h ONO 0,0 W/qm 0,0 nein 18:50
18:558,7 °C 6,7 °C 6,1 °C 58 % 1026,9 hPa 0,0 mm - 0,0 km/h 0,0 km/h ONO 0,0 W/qm 0,0 nein 18:55
19:008,3 °C 6,7 °C 6,1 °C 59 % 1027,0 hPa 0,0 mm - 0,0 km/h 0,0 km/h ONO 0,0 W/qm 0,0 nein 19:00
19:057,9 °C 6,7 °C 6,1 °C 60 % 1027,2 hPa 0,0 mm 2,6 mm 0,0 km/h 0,0 km/h ONO 0,0 W/qm 0,0 nein 19:05
19:107,7 °C 6,7 °C 6,1 °C 61 % 1027,2 hPa 0,0 mm 2,6 mm 0,0 km/h 0,0 km/h ONO 0,0 W/qm 0,0 nein 19:10
19:157,6 °C 6,7 °C 6,1 °C 62 % 1027,2 hPa 0,0 mm - 0,0 km/h 0,0 km/h ONO 0,0 W/qm 0,0 nein 19:15
19:207,1 °C 6,7 °C 6,1 °C 63 % 1027,3 hPa 0,0 mm - 0,0 km/h 0,0 km/h ONO 0,0 W/qm 0,0 nein 19:20
19:256,9 °C 6,7 °C 6,1 °C 63 % 1027,4 hPa 0,0 mm - 0,0 km/h 1,4 km/h ONO 0,0 W/qm 0,0 nein 19:25
19:306,6 °C 6,7 °C 6,1 °C 64 % 1027,5 hPa 0,0 mm - 0,0 km/h 1,4 km/h ONO 0,0 W/qm 0,0 nein 19:30
19:356,5 °C 6,7 °C 6,1 °C 65 % 1027,6 hPa 0,0 mm - 0,0 km/h 1,4 km/h ONO 0,0 W/qm 0,0 nein 19:35
19:406,4 °C 6,7 °C 6,1 °C 65 % 1027,6 hPa 0,0 mm - 0,0 km/h 0,0 km/h ONO 0,0 W/qm 0,0 nein 19:40
19:456,3 °C 6,7 °C 6,1 °C 64 % 1027,6 hPa 0,0 mm - 0,0 km/h 0,0 km/h ONO 0,0 W/qm 0,0 nein 19:45
19:506,1 °C 6,7 °C 6,1 °C 65 % 1027,6 hPa 0,0 mm - 0,0 km/h 0,0 km/h ONO 0,0 W/qm 0,0 nein 19:50
19:555,7 °C 6,7 °C 6,1 °C 66 % 1027,7 hPa 0,0 mm - 0,0 km/h 0,0 km/h ONO 0,0 W/qm 0,0 nein 19:55
UhrzeitTemperaturBoden 10cmBoden 20cmFeuchteLuftdruckNiederschlagEvapotranspirationWindWindböenWindrichtungSolarstrahlungUV-IndexSonne?Uhrzeit
20:005,4 °C 6,7 °C 6,1 °C 67 % 1027,9 hPa 0,0 mm - 0,0 km/h 0,0 km/h ONO 0,0 W/qm 0,0 nein 20:00
20:055,4 °C 6,7 °C 6,1 °C 68 % 1027,9 hPa 0,0 mm 2,6 mm 0,0 km/h 0,0 km/h ONO 0,0 W/qm 0,0 nein 20:05
20:105,2 °C 6,7 °C 6,1 °C 68 % 1027,9 hPa 0,0 mm 2,6 mm 0,0 km/h 0,0 km/h ONO 0,0 W/qm 0,0 nein 20:10
20:155,1 °C 6,7 °C 6,1 °C 69 % 1027,9 hPa 0,0 mm - 0,0 km/h 0,0 km/h ONO 0,0 W/qm 0,0 nein 20:15
20:204,9 °C 6,7 °C 6,1 °C 69 % 1027,9 hPa 0,0 mm - 0,0 km/h 0,0 km/h ONO 0,0 W/qm 0,0 nein 20:20
20:254,7 °C 6,7 °C 6,1 °C 70 % 1028,0 hPa 0,0 mm - 0,0 km/h 0,0 km/h ONO 0,0 W/qm 0,0 nein 20:25
20:304,7 °C 6,7 °C 6,1 °C 70 % 1027,9 hPa 0,0 mm - 0,0 km/h 0,0 km/h ONO 0,0 W/qm 0,0 nein 20:30
20:354,4 °C 6,7 °C 6,1 °C 71 % 1028,0 hPa 0,0 mm - 0,0 km/h 0,0 km/h ONO 0,0 W/qm 0,0 nein 20:35
20:404,3 °C 6,7 °C 6,1 °C 71 % 1028,0 hPa 0,0 mm - 0,0 km/h 0,0 km/h ONO 0,0 W/qm 0,0 nein 20:40
20:454,2 °C 6,1 °C 6,1 °C 72 % 1028,0 hPa 0,0 mm - 0,0 km/h 0,0 km/h ONO 0,0 W/qm 0,0 nein 20:45
20:504,1 °C 6,1 °C 6,1 °C 71 % 1028,0 hPa 0,0 mm - 0,0 km/h 0,0 km/h ONO 0,0 W/qm 0,0 nein 20:50
20:553,8 °C 6,1 °C 6,1 °C 72 % 1028,2 hPa 0,0 mm - 0,0 km/h 0,0 km/h ONO 0,0 W/qm 0,0 nein 20:55
21:003,7 °C 6,1 °C 6,1 °C 73 % 1028,1 hPa 0,0 mm - 0,0 km/h 0,0 km/h ONO 0,0 W/qm 0,0 nein 21:00
21:053,5 °C 6,1 °C 6,1 °C 74 % 1028,2 hPa 0,0 mm 2,6 mm 0,0 km/h 0,0 km/h ONO 0,0 W/qm 0,0 nein 21:05
21:103,4 °C 6,1 °C 6,1 °C 73 % 1028,3 hPa 0,0 mm 2,6 mm 0,0 km/h 0,0 km/h ONO 0,0 W/qm 0,0 nein 21:10
21:153,3 °C 6,1 °C 6,1 °C 74 % 1028,3 hPa 0,0 mm - 0,0 km/h 0,0 km/h ONO 0,0 W/qm 0,0 nein 21:15
21:203,4 °C 6,1 °C 6,1 °C 73 % 1028,3 hPa 0,0 mm - 0,0 km/h 0,0 km/h ONO 0,0 W/qm 0,0 nein 21:20
21:253,1 °C 6,1 °C 6,1 °C 74 % 1028,3 hPa 0,0 mm - 0,0 km/h 0,0 km/h ONO 0,0 W/qm 0,0 nein 21:25
21:303,1 °C 6,1 °C 6,1 °C 74 % 1028,3 hPa 0,0 mm - 0,0 km/h 0,0 km/h ONO 0,0 W/qm 0,0 nein 21:30
21:352,9 °C 6,1 °C 6,1 °C 75 % 1028,3 hPa 0,0 mm - 0,0 km/h 0,0 km/h ONO 0,0 W/qm 0,0 nein 21:35
21:402,9 °C 6,1 °C 6,1 °C 75 % 1028,4 hPa 0,0 mm - 0,0 km/h 0,0 km/h ONO 0,0 W/qm 0,0 nein 21:40
21:452,6 °C 6,1 °C 6,1 °C 75 % 1028,5 hPa 0,0 mm - 0,0 km/h 0,0 km/h ONO 0,0 W/qm 0,0 nein 21:45
21:502,6 °C 6,1 °C 6,1 °C 76 % 1028,5 hPa 0,0 mm - 0,0 km/h 0,0 km/h ONO 0,0 W/qm 0,0 nein 21:50
21:552,5 °C 6,1 °C 6,1 °C 76 % 1028,5 hPa 0,0 mm - 0,0 km/h 0,0 km/h ONO 0,0 W/qm 0,0 nein 21:55
UhrzeitTemperaturBoden 10cmBoden 20cmFeuchteLuftdruckNiederschlagEvapotranspirationWindWindböenWindrichtungSolarstrahlungUV-IndexSonne?Uhrzeit
22:002,3 °C 6,1 °C 6,1 °C 77 % 1028,5 hPa 0,0 mm - 0,0 km/h 0,0 km/h ONO 0,0 W/qm 0,0 nein 22:00
22:052,6 °C 6,1 °C 6,1 °C 77 % 1028,6 hPa 0,0 mm 2,6 mm 1,4 km/h 0,0 km/h NNO 0,0 W/qm 0,0 nein 22:05
22:102,9 °C 6,1 °C 6,1 °C 75 % 1028,4 hPa 0,0 mm 2,6 mm 1,4 km/h 9,7 km/h NNO 0,0 W/qm 0,0 nein 22:10
22:152,6 °C 6,1 °C 6,1 °C 75 % 1028,6 hPa 0,0 mm - 0,0 km/h 9,7 km/h NNO 0,0 W/qm 0,0 nein 22:15
22:202,6 °C 6,1 °C 6,1 °C 77 % 1028,6 hPa 0,0 mm - 0,0 km/h 9,7 km/h NNO 0,0 W/qm 0,0 nein 22:20
22:252,3 °C 6,1 °C 6,1 °C 76 % 1028,7 hPa 0,0 mm - 0,0 km/h 1,4 km/h NNO 0,0 W/qm 0,0 nein 22:25
22:302,3 °C 6,1 °C 6,1 °C 77 % 1028,7 hPa 0,0 mm - 0,0 km/h 1,4 km/h NNO 0,0 W/qm 0,0 nein 22:30
22:352,3 °C 6,1 °C 6,1 °C 77 % 1028,7 hPa 0,0 mm - 0,0 km/h 0,0 km/h NNO 0,0 W/qm 0,0 nein 22:35
22:402,1 °C 6,1 °C 6,1 °C 77 % 1028,8 hPa 0,0 mm - 0,0 km/h 0,0 km/h NNO 0,0 W/qm 0,0 nein 22:40
22:451,8 °C 6,1 °C 6,1 °C 77 % 1028,9 hPa 0,0 mm - 0,0 km/h 0,0 km/h NNO 0,0 W/qm 0,0 nein 22:45
22:501,7 °C 6,1 °C 6,1 °C 78 % 1028,9 hPa 0,0 mm - 0,0 km/h 0,0 km/h NNO 0,0 W/qm 0,0 nein 22:50
22:551,6 °C 6,1 °C 6,1 °C 78 % 1028,8 hPa 0,0 mm - 0,0 km/h 0,0 km/h NNO 0,0 W/qm 0,0 nein 22:55
23:001,5 °C 6,1 °C 6,1 °C 79 % 1028,9 hPa 0,0 mm - 0,0 km/h 0,0 km/h NNO 0,0 W/qm 0,0 nein 23:00
23:051,4 °C 6,1 °C 6,1 °C 79 % 1029,0 hPa 0,0 mm 2,6 mm 0,0 km/h 0,0 km/h NNO 0,0 W/qm 0,0 nein 23:05
23:101,3 °C 6,1 °C 6,1 °C 79 % 1029,0 hPa 0,0 mm 2,6 mm 0,0 km/h 0,0 km/h NNO 0,0 W/qm 0,0 nein 23:10
23:151,1 °C 5,6 °C 6,1 °C 80 % 1029,0 hPa 0,0 mm - 0,0 km/h 0,0 km/h NNO 0,0 W/qm 0,0 nein 23:15
23:201,1 °C 5,6 °C 6,1 °C 80 % 1029,2 hPa 0,0 mm - 0,0 km/h 0,0 km/h NNO 0,0 W/qm 0,0 nein 23:20
23:250,9 °C 5,6 °C 6,1 °C 79 % 1029,3 hPa 0,0 mm - 0,0 km/h 0,0 km/h NNO 0,0 W/qm 0,0 nein 23:25
23:300,7 °C 5,6 °C 6,1 °C 80 % 1029,4 hPa 0,0 mm - 0,0 km/h 0,0 km/h NNO 0,0 W/qm 0,0 nein 23:30
23:350,7 °C 5,6 °C 6,1 °C 81 % 1029,4 hPa 0,0 mm - 0,0 km/h 0,0 km/h NNO 0,0 W/qm 0,0 nein 23:35
23:400,6 °C 5,6 °C 6,1 °C 81 % 1029,3 hPa 0,0 mm - 0,0 km/h 0,0 km/h NNO 0,0 W/qm 0,0 nein 23:40
23:450,6 °C 5,6 °C 6,1 °C 82 % 1029,3 hPa 0,0 mm - 0,0 km/h 0,0 km/h NNO 0,0 W/qm 0,0 nein 23:45
23:500,6 °C 5,6 °C 6,1 °C 81 % 1029,3 hPa 0,0 mm - 0,0 km/h 0,0 km/h NNO 0,0 W/qm 0,0 nein 23:50
23:550,4 °C 5,6 °C 6,1 °C 81 % 1029,3 hPa 0,0 mm - 0,0 km/h 0,0 km/h NNO 0,0 W/qm 0,0 nein 23:55
Gesamt: 6,0 °C 5,3 °C 5,5 °C 65 % 1028,9 hPa 0,0 mm 56,2 mm 1,0 km/h 3,4 km/h 0 203,9 W/qm 0,6 ja

Insgesamt 288 Zeilen mal 13 Spalten = 3744 Werte werden angezeigt.

www.wetter-rosstal.de   •   www.wetter-franken.de   •   www.lightningmaps.org   •   Start   •   Kontakt / Datenschutz   •   PC-Kümmerer